Time,TemperatureF,DewpointF,PressureIn,WindDirection,WindDirectionDegrees,WindSpeedMPH,WindSpeedGustMPH,Humidity,HourlyPrecipIn,Conditions,Clouds,dailyrainin,SoftwareType,DateUTC
2013-01-21 14:30:00,29.5,6.5,29.91,NW,315,4.7,-999.0,37,-99.99,,,0.00,Acu-Link.com,2013-01-21 19:30:00,
2013-01-21 14:48:00,28.8,6.4,29.91,SW,225,4.2,-999.0,38,-99.99,,,0.00,Acu-Link.com,2013-01-21 19:48:00,
2013-01-21 15:20:00,28.6,6.8,29.90,SW,225,6.3,-999.0,39,-99.99,,,0.00,Acu-Link.com,2013-01-21 20:20:00,
2013-01-21 15:35:00,28.6,7.4,29.89,West,270,4.7,-999.0,40,-99.99,,,0.00,Acu-Link.com,2013-01-21 20:35:00,
2013-01-21 15:51:00,28.2,7.6,29.89,WSW,247,4.2,-999.0,41,-99.99,,,0.00,Acu-Link.com,2013-01-21 20:51:00,
2013-01-21 16:06:00,28.2,8.6,29.89,WSW,247,5.8,-999.0,43,-99.99,,,0.00,Acu-Link.com,2013-01-21 21:06:00,
2013-01-21 16:21:00,28.0,8.9,29.87,WSW,247,3.2,-999.0,44,-99.99,,,0.00,Acu-Link.com,2013-01-21 21:21:00,
2013-01-21 16:37:00,27.9,11.7,29.86,West,270,7.8,-999.0,50,-99.99,,,0.00,Acu-Link.com,2013-01-21 21:37:00,
2013-01-21 16:52:00,27.5,10.4,29.86,West,270,5.8,-999.0,48,-99.99,,,0.00,Acu-Link.com,2013-01-21 21:52:00,
2013-01-21 17:07:00,27.5,9.9,29.86,SSW,202,4.7,-999.0,47,-99.99,,,0.00,Acu-Link.com,2013-01-21 22:07:00,
2013-01-21 17:24:00,27.5,10.9,29.85,North,0,3.2,-999.0,49,-99.99,,,0.00,Acu-Link.com,2013-01-21 22:24:00,
2013-01-21 17:42:00,27.1,12.7,29.85,East,90,1.7,-999.0,54,-99.99,,,0.00,Acu-Link.com,2013-01-21 22:42:00,
2013-01-21 17:57:00,26.6,13.8,29.86,SSE,157,2.7,-999.0,58,-99.99,,,0.00,Acu-Link.com,2013-01-21 22:57:00,
2013-01-21 18:13:00,26.2,15.0,29.86,SSW,202,2.7,-999.0,62,-99.99,,,0.00,Acu-Link.com,2013-01-21 23:13:00,
2013-01-21 18:29:00,25.9,16.1,29.86,WSW,247,3.7,-999.0,66,-99.99,,,0.00,Acu-Link.com,2013-01-21 23:29:00,
2013-01-21 18:45:00,25.0,17.3,29.85,NNE,22,3.7,-999.0,72,-99.99,,,0.00,Acu-Link.com,2013-01-21 23:45:00,
2013-01-21 19:01:00,24.4,17.9,29.85,SW,225,1.7,-999.0,76,-99.99,,,0.00,Acu-Link.com,2013-01-22 00:01:00,
2013-01-21 19:16:00,24.3,19.0,29.84,NW,315,1.1,-999.0,80,-99.99,,,0.00,Acu-Link.com,2013-01-22 00:16:00,
2013-01-21 19:32:00,24.1,19.1,29.84,NW,315,1.1,-999.0,81,-99.99,,,0.00,Acu-Link.com,2013-01-22 00:32:00,
2013-01-21 19:48:00,23.9,19.2,29.86,West,270,0.0,-999.0,82,-99.99,,,0.00,Acu-Link.com,2013-01-22 00:48:00,
2013-01-21 20:03:00,23.9,19.5,29.83,NNE,22,1.1,-999.0,83,-99.99,,,0.00,Acu-Link.com,2013-01-22 01:03:00,
2013-01-21 20:19:00,23.7,19.3,29.84,West,270,1.1,-999.0,83,-99.99,,,0.00,Acu-Link.com,2013-01-22 01:19:00,
2013-01-21 20:35:00,23.5,19.1,29.84,North,0,1.7,-999.0,83,-99.99,,,0.00,Acu-Link.com,2013-01-22 01:35:00,
2013-01-21 20:50:00,23.5,19.4,29.82,NE,45,1.1,-999.0,84,-99.99,,,0.00,Acu-Link.com,2013-01-22 01:50:00,
2013-01-21 21:07:00,23.5,19.1,29.84,NNE,22,2.2,-999.0,83,-99.99,,,0.00,Acu-Link.com,2013-01-22 02:07:00,
2013-01-21 21:23:00,23.5,19.4,29.78,NE,45,2.2,-999.0,84,-99.99,,,0.00,Acu-Link.com,2013-01-22 02:23:00,
2013-01-21 21:38:00,23.4,19.3,29.81,ENE,67,3.2,-999.0,84,-99.99,,,0.00,Acu-Link.com,2013-01-22 02:38:00,
2013-01-21 21:53:00,23.2,19.4,29.78,NE,45,1.1,-999.0,85,-99.99,,,0.00,Acu-Link.com,2013-01-22 02:53:00,
2013-01-21 22:11:00,23.2,19.4,29.79,NNE,22,0.0,-999.0,85,-99.99,,,0.00,Acu-Link.com,2013-01-22 03:11:00,